Location: Unspecified
(0.0000°N, 0.0000°E)
Time: 13:40:29
(UTC+00:00)

Transit 2A - Pass Details

Date: 22 November 2019
Orbit: 602 x 957 km, 66.7° (Epoch: 08 December)

Event Time Altitude Azimuth Distance (km) Brightness Sun altitude
Rises 22:30:41 0° 313° (NW) 3,007 - -62.6°
Reaches altitude 10° 22:33:23 10° 297° (WNW) 2,153 - -63.1°
Maximum altitude 22:37:05 21° 248° (WSW) 1,601 - -63.6°
Drops below altitude 10° 22:41:04 10° 199° (SSW) 2,335 - -64.3°
Sets 22:44:08 0° 184° (S) 3,339 - -64.7°
